Flag for Brazil Weather past 2 weeks in Florianópolis, Santa Catarina, Brazil

Now
63 °F

Clear.


Feels Like: 63 °F
Forecast: 62 / 84 °F
Wind: 3 mph from Northwest

Location: Florianopolis Aeroporto

Current Time: Aug 30, 2015 at 5:49:25 AM

Latest Report: Aug 30, 2015 at 5:00 AM


Visibility: 10 mi

Pressure: 30.01 "Hg

Humidity: 88%

Dew point: 59 °F

Location of FlorianópolisLocation

Historic Weather in Florianópolis — Graph

°F

Florianópolis temperature yesterday

Maximum temperature yesterday: 79 °F (at 2:00 PM)
Minimum temperature yesterday: 63 °F (at 5:00 AM)
Average temperature yesterday: 69 °F

Past Weeks' High & Low Weather Summary

 TemperatureHumidityPressure
High81 °F (Aug 15, 2:00 PM)94% (Aug 16, 4:00 AM)30.24 "Hg (Aug 16, 4:00 AM)
Low55 °F (Aug 28, 5:00 AM)34% (Aug 15, 6:00 PM)29.80 "Hg (Aug 23, 7:00 AM)
Average68 °F78%30.06 "Hg
* Reported Aug 15 4:00 AM — Aug 30 4:00 AM, Florianópolis, Weather by CustomWeather, © 2015

Note: Actual official high and low records may vary slightly from our data, if they occured in-between our weather recording intervals... More about our weather records

Advertising

Florianópolis weather history for previous 24 hours

 ConditionsComfort  
Time TempWeatherWind HumidityBarometerVisibility
4:00 AM
Sun, Aug 30
64 °FClear.8 mph88%30.01 "Hg10 mi
3:00 AM66 °FClear.9 mph88%30.01 "Hg10 mi
2:00 AM66 °FClear.10 mph88%30.04 "Hg10 mi
1:00 AM68 °FClear.12 mph88%30.07 "Hg10 mi
12:00 AM68 °FClear.13 mph88%30.07 "Hg10 mi
11:00 PM
Sat, Aug 29
68 °FClear.14 mph88%30.07 "Hg10 mi
10:00 PM68 °FClear.14 mph88%30.07 "Hg10 mi
9:00 PM68 °FClear.14 mph88%30.07 "Hg10 mi
8:00 PM70 °FClear.16 mph78%30.04 "Hg10 mi
7:00 PM70 °FClear.17 mph78%30.04 "Hg10 mi
6:00 PM70 °FClear.16 mph73%30.01 "Hg10 mi
5:00 PM73 °FClear.17 mph65%30.01 "Hg10 mi
4:00 PM75 °FSunny.15 mph61%30.01 "Hg10 mi
3:00 PM77 °FSunny.15 mph57%30.01 "Hg10 mi
2:00 PM79 °FSunny.16 mph51%30.04 "Hg10 mi
1:00 PM77 °FSunny.16 mph51%30.07 "Hg10 mi
12:00 PM75 °FSunny.20 mph57%30.12 "Hg10 mi
11:00 AM73 °FSunny.18 mph61%30.12 "Hg10 mi
10:00 AM70 °FSunny.6 mph83%30.15 "Hg10 mi
9:00 AM68 °FSunny.5 mph88%30.15 "Hg10 mi
8:00 AM64 °FSunny.12 mph83%30.15 "Hg10 mi
7:00 AM63 °FSunny.13 mph83%30.15 "Hg10 mi
6:00 AM63 °FSunny.13 mph77%30.12 "Hg10 mi
5:00 AM63 °FClear.12 mph83%30.12 "Hg10 mi
Weather by CustomWeather, © 2015

See weather overviewHow to use our weather pages